Location: Unspecified
(28.0833°N, 0.0000°E)
Time: 00:41:44
(UTC+00:00)

CZ-6A DEB - Visible Passes

Search period start: 04 April 2026 00:00
Search period end: 14 April 2026 00:00
Orbit: 782 x 840 km, 98.8° (Epoch: 29 March)

Date Brightness Start Highest point End Pass type
(mag) Time Alt. Az. Time Alt. Az. Time Alt. Az.
4 Apr ? 20:03:32 10° WSW 20:05:50 13° W 20:08:09 10° WNW visible
5 Apr ? 19:38:10 10° SSW 19:42:16 24° W 19:46:26 10° NW visible
6 Apr ? 19:13:54 10° S 19:18:47 42° W 19:23:44 10° NNW visible
7 Apr ? 18:50:11 10° S 18:55:21 77° WSW 19:00:37 10° NNW visible
8 Apr ? 20:10:51 10° WSW 20:12:10 11° W 20:13:28 10° W visible
9 Apr ? 19:44:46 10° SW 19:48:35 21° W 19:52:26 10° NW visible
10 Apr ? 19:20:19 10° SSW 19:25:04 36° W 19:29:54 10° NNW visible
11 Apr ? 18:56:28 10° S 19:01:36 66° WSW 19:06:52 10° NNW visible
13 Apr ? 19:51:25 10° SW 19:54:52 18° W 19:58:22 10° NW visible
